Location: Amanico Ergina Village
(37.7824°N, 122.4366°W)
Time: 21:44:47
(UTC+00:00)

ALOS - Pass Details

Date: 29 October 2020
Orbit: 683 x 685 km, 97.9° (Epoch: 24 November)

Event Time Altitude Azimuth Distance (km) Brightness Sun altitude
Rises 13:58:36 0° 353° (N) 3,054 5.4 -7.4°
Reaches altitude 10° 14:01:36 10° 332° (NNW) 2,134 4.4 -6.8°
Maximum altitude 14:04:25 16° 295° (WNW) 1,751 3.8 -6.2°
Drops below altitude 10° 14:07:14 10° 257° (WSW) 2,126 4.3 -5.7°
Sets 14:10:13 0° 236° (WSW) 3,037 5.2 -5.1°
